Location: Dayton
(39.7590°N, 84.1920°W)
Time: 10:11:47
(UTC-04:00)

ATLAS CENTAUR R/B - Visible Passes

Search period start: 22 September 2014 00:00
Search period end: 02 October 2014 00:00
Orbit: 233 x 9488 km, 57.3° (Epoch: 30 May)

Date Brightness Start Highest point End Pass type
(mag) Time Alt. Az. Time Alt. Az. Time Alt. Az.
23 Sep 3.8 05:43:57 26° SSW 05:47:23 80° SE 06:04:41 10° NE visible
24 Sep 4.5 04:28:48 25° SE 04:30:48 30° ESE 04:41:26 10° NE visible
25 Sep 4.4 06:28:26 15° WSW 06:33:49 62° NNW 06:55:41 10° NE visible
26 Sep 3.4 05:12:57 46° SSW 05:14:53 73° SE 05:30:49 10° NE visible
27 Sep 4.8 03:57:19 25° ESE 03:58:06 26° E 04:07:13 10° NE visible
28 Sep 3.9 05:56:23 29° WSW 06:00:00 65° NW 06:20:14 10° NE visible
29 Sep 3.4 04:40:25 62° SE 04:40:54 64° ESE 04:55:24 10° NE visible
30 Sep 5.2 03:24:17 21° E 03:24:17 21° E 03:31:20 10° NE visible
30 Sep 4.8 06:39:07 13° W 06:45:50 48° NNW 07:11:15 10° NE visible
01 Oct 3.5 05:22:48 50° W 05:24:41 69° NW 05:43:15 10° NE visible
